STARLINK-33978, 63832

Orbit data source: Space-Track

STARLINK-33978, 63832 is a payload satellite owned by SpaceX/Seattle (US) in LEO that was launched on Sun, 04 May 2025 UTC via an FALCON 9 launch vehicle from the Air Force Eastern Test Range (AFETR). Payload-class satellites include a variety of spacecraft equipped with specific instruments for various scientific and technological missions. These include communications satellites like Starlink; space stations such as the ISS; scientific satellites like the Hubble; Earth observation satellites from companies like Planet Labs, Umbra, and HawkEye 360; GPS; miniature CubeSats for education and research; and military/defense satellites.

Loading next visibility...
Identifier
63832, 2025-092AE
Orbit
LEO
Last TLE update
16 hours ago
Origin
Manufacturer
SpaceX/Seattle
Mission
Operational Commercial Communications
Bus & Motor
STARLINK V2MO, Unknown motor
Mass
575 kg wet, ~530 kg dry
Launch date (UTC)
2025-05-04 (2 months ago)
Launch vehicle
FALCON 9
Launch site
Air Force Eastern Test Range (AFETR)
Object type
Payload
Rocket body
Debris
Shape & HBR
Box + 1 Pan, 14.5 m
Radar Cross Section
41.120 m², Large (>1 m²)

Expand to show TLE details & history

TLE from 16 hours ago
0 STARLINK-33978
1 63832U 25092AE  25199.32639127  .00021357  00000-0  78318-3 0  9997
2 63832  43.0027  55.9477 0001333 274.5199  85.5500 15.27588455 12820
Epoch: 2025-07-18T07:50Z
TLE epoch observation values (Epoch: 2025-07-18T07:50:00.205Z)
Latitude
-0.00006°
Longitude
2.06733°
Altitude
482.729 km
Speed
7.626 km/s
True Right ascension
03h 43m 47s
True Declination
0° 00' 00"
Sunlit
Object was in daylight at epoch
Visualization orbit readout
Latitude
-23.77287°
Longitude
-29.60547°
Altitude
488.01 km
Speed
7.622 km/s
Apparent Right ascension
00h 58m 53s
Apparent Declination
-31° 50' 33"
Sunlit
Object is in daylight
Visualization observer readout
Local Sidereal Time
12:09:43
Azimuth
305.274° NW
Elevation
-77.199°
Doppler factor
1
Orbital elements
Apogee altitude
485.883 km
Perigee altitude
484.054 km
Semi-major axis
6,863.106 km
Eccentricity
0.00013
Inclination
43.0027°
RAAN
55.9477°
Arg. of periapsis
274.5199°
True anomaly
85.56523°
Mean anomaly
85.55°
Eccentric anomaly
85.55761°
Mean motion
3.81735 °/min
Orbital period
94.31 mins
BSTAR
0.00078318
Loading maneuver chart data...
Loading SW <> Apogee altitude chart data...
Loading historical data...
Loading historical data...
Loading historical data...
Loading historical data...
Loading historical data...
Loading historical data...
Loading historical data...
|